CW2857 Weather Reports


time (UTC)temp
F
wind
direction
speed
knots
gust
knots
rain 1hr
in
rain 24hr
in
rain mn
in
humidity
%
barometer
mb
20260506162100 68 340 5.2 13.0 0.00 0.00 0.00 27 1015.1
20260506161600 67 347 7.0 13.0 0.00 0.00 0.00 27 1015.1
20260506161057 67 355 7.8 16.5 0.00 0.00 0.00 27 1015.1
20260506160557 67 339 7.8 16.5 0.00 0.00 0.00 27 1015.1
20260506160107 67 344 7.0 13.9 0.00 0.00 0.00 28 1015.1
20260506155555 67 350 7.8 13.0 0.00 0.00 0.00 27 1015.0
20260506155054 67 82 7.8 13.0 0.00 0.00 0.00 28 1015.1
20260506154553 67 315 6.1 15.6 0.00 0.00 0.00 29 1015.1
20260506154052 66 5 7.8 15.6 0.00 0.00 0.00 29 1015.1
20260506153552 66 350 5.2 12.2 0.00 0.00 0.00 31 1015.0
20260506153049 66 348 4.3 10.4 0.00 0.00 0.00 32 1015.0
20260506152548 65 329 6.1 10.4 0.00 0.00 0.00 33 1014.9
20260506152048 65 302 4.3 10.4 0.00 0.00 0.00 34 1015.0
20260506151546 64 340 4.3 9.6 0.00 0.00 0.00 35 1015.0
20260506151044 63 333 5.2 9.6 0.00 0.00 0.00 36 1014.9
20260506150543 63 288 4.3 9.6 0.00 0.00 0.00 37 1014.9
20260506150042 62 355 3.5 7.8 0.00 0.00 0.00 39 1014.8
20260506145540 61 281 1.7 7.8 0.00 0.00 0.00 40 1014.9
20260506145039 61 269 2.6 9.6 0.00 0.00 0.00 41 1014.8
20260506144538 60 273 5.2 9.6 0.00 0.00 0.00 41 1014.7
20260506144039 60 240 5.2 9.6 0.00 0.00 0.00 43 1014.7
20260506143538 60 272 5.2 10.4 0.00 0.00 0.00 43 1014.6
20260506143037 60 281 7.0 10.4 0.00 0.00 0.00 45 1014.6
20260506142536 60 319 4.3 10.4 0.00 0.00 0.00 48 1014.5
20260506142036 59 307 3.5 12.2 0.00 0.00 0.00 49 1014.4
20260506141535 59 267 7.0 12.2 0.00 0.00 0.00 50 1014.3
20260506141036 59 288 8.7 13.0 0.00 0.00 0.00 50 1014.2
20260506140534 59 261 8.7 13.0 0.00 0.00 0.00 50 1014.1
20260506140037 59 261 7.8 11.3 0.00 0.00 0.00 50 1014.1
20260506135535 58 288 7.0 11.3 0.00 0.00 0.00 49 1014.1
20260506135032 58 248 7.0 11.3 0.00 0.00 0.00 48 1014.1
20260506134605 58 279 6.1 11.3 0.00 0.00 0.00 47 1014.0
20260506134030 58 280 6.1 13.0 0.00 0.00 0.00 46 1014.0
20260506133531 58 278 7.8 10.4 0.00 0.00 0.00 48 1013.8
20260506133032 57 275 4.3 10.4 0.00 0.00 0.00 51 1013.8
20260506132529 57 266 7.8 10.4 0.00 0.00 0.00 51 1013.7
20260506132029 57 254 7.0 8.7 0.00 0.00 0.00 51 1013.6
20260506131529 57 239 4.3 10.4 0.00 0.00 0.00 51 1013.5
20260506131026 58 265 3.5 10.4 0.00 0.00 0.00 49 1013.4
20260506130532 57 268 5.2 11.3 0.00 0.00 0.00 49 1013.3
20260506130027 57 255 3.5 8.7 0.00 0.00 0.00 52 1013.2
20260506125525 56 222 4.3 7.0 0.00 0.01 0.00 53 1013.2
20260506125025 56 234 2.6 7.0 0.00 0.01 0.00 53 1013.1
20260506124523 56 273 1.7 5.2 0.00 0.01 0.00 53 1013.1
20260506124022 56 276 2.6 6.1 0.00 0.01 0.00 52 1013.0
20260506123522 57 259 3.5 7.0 0.00 0.01 0.00 51 1013.0
20260506123022 58 240 3.5 9.6 0.00 0.01 0.00 50 1013.0
20260506122523 58 244 7.0 9.6 0.00 0.01 0.00 49 1013.0
20260506122020 58 273 7.0 11.3 0.00 0.01 0.00 48 1012.8
20260506121520 58 250 7.8 11.3 0.00 0.01 0.00 50 1012.9
20260506121019 57 271 7.8 11.3 0.00 0.01 0.00 51 1012.7
20260506120519 57 272 5.2 9.6 0.00 0.01 0.00 52 1012.6
20260506120018 58 253 5.2 9.6 0.00 0.01 0.00 51 1012.5
20260506115517 57 269 4.3 10.4 0.00 0.01 0.00 51 1012.5
20260506115019 58 245 4.3 10.4 0.00 0.01 0.00 51 1012.4
20260506114524 58 246 6.1 9.6 0.00 0.01 0.00 51 1012.3
20260506114016 58 234 5.2 10.4 0.00 0.01 0.00 50 1012.2
20260506113516 58 238 7.0 10.4 0.00 0.01 0.00 50 1012.2
20260506113018 58 261 5.2 9.6 0.00 0.01 0.00 50 1012.2
20260506112515 58 240 5.2 11.3 0.00 0.01 0.00 51 1012.1
20260506112015 58 243 6.1 11.3 0.00 0.01 0.00 51 1012.0
20260506111513 57 285 4.3 9.6 0.00 0.01 0.00 52 1011.9
20260506111013 56 254 5.2 9.6 0.00 0.01 0.00 55 1011.9
20260506110513 54 239 4.3 7.8 0.00 0.01 0.00 61 1011.9
20260506110016 52 306 2.6 7.8 0.00 0.01 0.00 65 1011.8
20260506105510 51 298 0.0 2.6 0.00 0.01 0.00 65 1011.8
20260506105010 51 355 0.0 2.6 0.00 0.01 0.00 65 1011.7
20260506104510 51 5 0.9 2.6 0.00 0.01 0.00 65 1011.6
20260506104009 50 221 0.0 1.7 0.00 0.01 0.00 65 1011.6
20260506103509 51 223 0.0 1.7 0.00 0.01 0.00 65 1011.5
20260506103019 51 225 0.0 2.6 0.00 0.01 0.00 64 1011.4
20260506102507 51 225 0.0 2.6 0.00 0.01 0.00 64 1011.4
20260506102005 51 225 0.9 2.6 0.00 0.01 0.00 63 1011.3
20260506101505 52 225 0.9 2.6 0.00 0.01 0.00 63 1011.3
20260506101003 52 234 0.9 1.7 0.00 0.01 0.00 62 1011.3
20260506100503 52 234 0.0 4.3 0.00 0.01 0.00 62 1011.2
20260506100003 52 234 0.9 4.3 0.00 0.01 0.00 62 1011.2
20260506095502 52 211 1.7 2.6 0.00 0.01 0.00 64 1011.1
20260506095002 52 209 0.0 1.7 0.00 0.01 0.00 63 1011.1
20260506094601 52 209 0.9 1.7 0.00 0.01 0.00 63 1011.0
20260506094100 52 209 0.9 2.6 0.00 0.01 0.00 63 1010.9
20260506093604 52 210 0.9 2.6 0.00 0.01 0.00 62 1010.9
20260506093101 52 209 1.7 3.5 0.00 0.01 0.00 62 1010.9
20260506092558 53 209 0.9 2.6 0.00 0.01 0.00 62 1010.8
20260506092102 53 201 0.9 2.6 0.00 0.01 0.00 61 1010.8
20260506091556 53 136 0.0 2.6 0.00 0.01 0.00 60 1010.8
20260506091056 53 138 0.9 2.6 0.00 0.01 0.00 60 1010.7
20260506090557 53 194 0.9 2.6 0.00 0.01 0.00 60 1010.7
20260506090054 53 116 0.0 6.1 0.00 0.01 0.00 59 1010.6
20260506085553 53 131 1.7 6.1 0.00 0.01 0.00 58 1010.6
20260506085052 54 38 0.9 3.5 0.00 0.01 0.00 56 1010.6
20260506084551 56 60 0.0 4.3 0.00 0.01 0.00 53 1010.6
20260506084053 58 44 1.7 6.1 0.00 0.01 0.00 49 1010.5
20260506083549 60 67 0.0 9.6 0.00 0.01 0.00 47 1010.3
20260506083107 61 260 2.6 12.2 0.00 0.01 0.00 47 1010.2
20260506082547 61 265 4.3 10.4 0.00 0.01 0.00 47 1010.1
20260506082050 61 252 4.3 12.2 0.00 0.01 0.00 47 1010.1
20260506081550 61 252 6.1 12.2 0.00 0.01 0.00 46 1010.0
20260506081045 61 261 5.2 12.2 0.00 0.01 0.00 46 1010.1
20260506080545 60 245 7.0 13.9 0.00 0.01 0.00 47 1010.1
20260506073038 56 199 0.9 2.6 0.00 0.01 0.00 56 1009.9
20260506072538 56 199 0.0 2.6 0.00 0.01 0.00 55 1010.0
20260506072037 57 199 0.0 2.6 0.00 0.01 0.00 55 1010.0
20260506071535 57 199 0.9 2.6 0.00 0.01 0.00 55 1009.9
20260506071034 57 199 0.9 2.6 0.00 0.01 0.00 55 1009.8
20260506070536 56 199 0.9 2.6 0.00 0.01 0.00 55 1009.8
20260506062031 58 344 0.0 1.7 0.00 0.04 0.01 53 1009.6
20260506061537 58 344 0.0 1.7 0.00 0.04 0.01 52 1009.5
20260506061032 58 344 0.0 1.7 0.00 0.04 0.01 51 1009.3
20260506060530 59 344 0.0 2.6 0.00 0.04 0.01 50 1009.4
20260506051030 61 139 6.1 12.2 0.00 0.04 0.01 45 1008.8
20260506050528 61 133 7.0 13.0 0.00 0.04 0.01 45 1008.9
20260506045027 62 138 7.8 20.0 0.00 0.04 0.01 44 1008.8
20260506044528 62 144 7.8 16.5 0.00 0.04 0.01 44 1008.8
20260506044029 62 151 10.4 20.0 0.00 0.04 0.01 44 1008.8
20260506043528 62 126 12.2 18.2 0.00 0.04 0.01 43 1008.8
20260506043027 62 130 8.7 17.4 0.00 0.04 0.01 42 1008.7
20260506042527 62 113 3.5 7.8 0.00 0.04 0.01 43 1008.6
20260506042027 63 38 1.7 7.0 0.00 0.04 0.01 42 1008.7
20260506041531 63 80 2.6 6.1 0.00 0.04 0.01 41 1008.4
20260506041027 64 161 0.9 6.1 0.00 0.04 0.01 40 1008.0
20260506040526 64 173 4.3 8.7 0.00 0.04 0.01 40 1007.9
20260506040028 65 168 4.3 9.6 0.00 0.04 0.01 40 1007.8
20260506035527 65 159 3.5 9.6 0.00 0.04 0.01 39 1007.9
20260506035026 65 146 3.5 10.4 0.00 0.04 0.01 39 1007.8
20260506034525 65 146 6.1 10.4 0.00 0.04 0.01 39 1007.9
20260506034026 65 115 3.5 9.6 0.00 0.04 0.01 39 1007.8
20260506033528 65 159 5.2 13.0 0.00 0.04 0.01 39 1007.7
20260506033024 65 138 8.7 13.0 0.00 0.04 0.01 38 1007.7
20260506032524 65 137 6.1 12.2 0.00 0.04 0.01 38 1007.6
20260506032024 65 104 7.0 12.2 0.00 0.04 0.01 38 1007.5
20260506031529 65 134 7.0 13.0 0.00 0.04 0.01 38 1007.4
20260506031028 65 103 7.0 15.6 0.00 0.04 0.01 38 1007.3
20260506030525 65 111 7.8 15.6 0.00 0.04 0.01 37 1007.3
20260506030024 66 111 8.7 13.9 0.00 0.04 0.01 37 1007.3
20260506025527 66 119 7.8 13.9 0.00 0.05 0.01 37 1007.2
20260506025023 66 146 7.0 13.9 0.00 0.05 0.01 37 1007.2
20260506024535 66 124 8.7 13.9 0.00 0.05 0.01 36 1007.1
20260506024022 66 134 8.7 15.6 0.00 0.05 0.01 36 1007.0
20260506023524 67 148 8.7 15.6 0.00 0.05 0.01 35 1007.0
20260506023022 67 139 8.7 16.5 0.00 0.05 0.01 34 1007.0
20260506022525 67 130 9.6 16.5 0.00 0.05 0.01 34 1006.9
20260506022021 68 127 7.0 13.9 0.00 0.05 0.01 34 1007.1
20260506021522 69 85 2.6 12.2 0.00 0.05 0.01 33 1007.3
20260506021020 69 138 4.3 12.2 0.00 0.05 0.01 32 1007.3
20260506020521 69 98 5.2 10.4 0.00 0.05 0.01 32 1007.0
20260506020120 70 159 6.1 10.4 0.00 0.05 0.01 32 1006.9
20260506015520 71 88 5.2 8.7 0.00 0.05 0.01 31 1006.8
20260506015021 70 82 4.3 12.2 0.00 0.05 0.01 31 1006.9
20260506014522 70 103 7.0 12.2 0.00 0.05 0.01 31 1006.8
20260506014018 71 133 5.2 12.2 0.00 0.05 0.01 30 1006.8
20260506013519 71 107 5.2 11.3 0.00 0.05 0.01 30 1006.9
20260506013019 71 136 6.1 13.0 0.00 0.05 0.01 30 1006.9
20260506012518 71 112 6.1 12.2 0.00 0.05 0.01 29 1006.8
20260506012021 72 163 6.1 12.2 0.00 0.05 0.01 29 1006.8
20260506011539 73 92 5.2 10.4 0.00 0.05 0.01 27 1006.8
20260506011017 73 101 0.9 7.8 0.00 0.05 0.01 26 1006.9
20260506010517 73 205 2.6 7.8 0.00 0.05 0.01 26 1006.8
20260506010018 75 119 3.5 7.0 0.00 0.05 0.01 24 1006.7
20260506005517 77 97 2.6 5.2 0.00 0.12 0.01 23 1006.9
20260506005016 76 57 0.9 3.5 0.00 0.12 0.01 24 1007.0
20260506004517 76 28 1.7 5.2 0.00 0.12 0.01 24 1007.1
20260506004014 76 191 1.7 5.2 0.00 0.12 0.01 24 1007.2
20260506003515 76 360 1.7 5.2 0.00 0.12 0.01 24 1007.2
20260506003017 76 40 0.9 5.2 0.00 0.12 0.01 24 1007.2
20260506002518 75 83 0.9 7.0 0.00 0.12 0.01 25 1007.3
20260506002016 75 55 3.5 7.0 0.00 0.12 0.01 25 1007.3
20260506001514 76 74 2.6 6.1 0.00 0.12 0.01 24 1007.4
20260506001014 75 47 0.9 5.2 0.00 0.12 0.01 25 1007.5
20260506000519 75 106 1.7 5.2 0.00 0.12 0.01 25 1007.4
20260506000018 75 128 1.7 4.3 0.00 0.12 0.01 25 1007.5
20260505235513 75 40 0.9 5.2 0.00 0.14 0.01 26 1007.5
20260505235013 74 86 2.6 5.2 0.00 0.14 0.01 26 1007.6
20260505234531 74 41 2.6 6.1 0.00 0.14 0.01 26 1007.7
20260505234011 73 79 1.7 7.8 0.00 0.14 0.01 28 1007.7
20260505233511 72 69 1.7 8.7 0.00 0.14 0.01 28 1007.8
20260505233012 71 196 2.6 8.7 0.00 0.14 0.01 28 1007.8
20260505232513 73 200 2.6 5.2 0.00 0.14 0.01 27 1008.0
20260505232010 75 96 1.7 5.2 0.00 0.14 0.01 26 1008.0
20260505231511 73 351 0.9 7.0 0.00 0.14 0.01 28 1008.1
20260505231010 73 115 1.7 7.0 0.00 0.14 0.01 27 1008.1
20260505230510 72 94 2.6 6.1 0.00 0.14 0.01 27 1008.2
20260505230011 73 210 2.6 5.2 0.00 0.14 0.01 27 1008.2
20260505225513 74 163 0.0 5.2 0.00 0.14 0.01 26 1008.3
20260505225010 75 5 3.5 7.0 0.00 0.14 0.01 26 1008.4
20260505224509 76 92 1.7 6.1 0.00 0.14 0.01 26 1008.3
20260505224008 75 90 0.9 4.3 0.00 0.14 0.01 27 1008.3
20260505223509 73 37 0.9 4.3 0.00 0.14 0.01 27 1008.3
20260505223013 72 28 0.9 6.1 0.00 0.14 0.01 28 1008.6
20260505222512 74 118 4.3 7.0 0.00 0.14 0.01 26 1008.6
20260505222007 75 59 0.9 7.0 0.00 0.14 0.01 27 1008.8
20260505221508 76 76 1.7 4.3 0.00 0.14 0.01 25 1008.8
20260505221007 76 5 0.9 7.0 0.00 0.14 0.01 26 1008.9
20260505220505 76 9 2.6 7.0 0.00 0.14 0.01 27 1009.0
20260505220004 75 350 1.7 7.8 0.00 0.14 0.01 28 1009.1
20260505215503 74 38 1.7 7.8 0.00 0.14 0.01 28 1009.2
20260505215002 72 360 1.7 3.5 0.00 0.14 0.01 31 1009.2
20260505214602 72 132 0.9 7.0 0.00 0.14 0.01 31 1009.3
20260505214002 72 128 2.6 7.0 0.00 0.14 0.01 30 1009.4
20260505213503 69 71 0.9 7.8 0.00 0.14 0.01 34 1009.4
20260505213001 67 165 3.5 7.8 0.00 0.14 0.01 37 1009.4
20260505212603 68 162 5.2 7.8 0.00 0.14 0.01 34 1009.4
20260505212003 67 202 3.5 7.8 0.00 0.14 0.01 35 1009.4
20260505211601 68 193 0.9 6.1 0.00 0.14 0.01 35 1009.5
20260505211100 66 150 1.7 7.8 0.00 0.14 0.01 37 1009.5
20260505210559 66 168 4.3 9.6 0.00 0.14 0.01 36 1009.6
20260505210100 68 157 5.2 9.6 0.00 0.14 0.01 34 1009.6
20260505205600 69 5 0.9 8.7 0.00 0.14 0.01 34 1009.7
20260505205100 72 167 1.7 7.0 0.00 0.14 0.01 31 1009.8
20260505204601 71 115 1.7 7.8 0.00 0.14 0.01 32 1009.8
20260505204056 70 49 3.5 7.8 0.00 0.14 0.01 34 1009.8
20260505203555 69 27 2.6 6.1 0.00 0.14 0.01 35 1009.8
20260505203101 68 51 2.6 8.7 0.00 0.14 0.01 37 1009.9
20260505202554 68 80 3.5 8.7 0.00 0.14 0.01 37 1010.0
20260505202054 66 81 1.7 3.5 0.00 0.14 0.01 40 1010.0
20260505201554 65 36 1.7 6.1 0.00 0.14 0.01 41 1010.0
20260505201054 66 182 1.7 6.1 0.00 0.14 0.01 40 1010.0
20260505200554 68 187 2.6 5.2 0.00 0.14 0.01 37 1010.0
20260505200053 69 5 3.5 5.2 0.00 0.14 0.01 37 1010.1
20260505195551 67 86 1.7 8.7 0.00 0.14 0.01 40 1010.1
20260505195050 66 60 2.6 8.7 0.00 0.14 0.01 42 1010.2
20260505194605 65 82 3.5 7.0 0.00 0.14 0.01 43 1010.3
20260505194049 65 101 2.6 7.0 0.00 0.14 0.01 44 1010.3
20260505193548 65 88 3.5 6.1 0.00 0.14 0.01 44 1010.3
20260505193048 63 355 0.9 7.8 0.00 0.14 0.01 47 1010.4
20260505192547 63 65 0.9 7.8 0.00 0.14 0.01 48 1010.3
20260505192047 63 98 2.6 6.1 0.00 0.14 0.01 48 1010.5
20260505191556 62 171 2.6 4.3 0.00 0.14 0.01 48 1010.4
20260505191048 61 82 0.0 5.2 0.00 0.14 0.01 49 1010.3
20260505190548 61 190 0.9 5.2 0.00 0.14 0.01 48 1010.3
20260505190046 61 144 1.7 6.1 0.00 0.14 0.01 47 1010.4
20260505185545 62 247 1.7 4.3 0.00 0.14 0.01 48 1010.3
20260505185045 62 236 1.7 4.3 0.00 0.14 0.01 47 1010.3
20260505184545 62 355 1.7 4.3 0.00 0.14 0.01 48 1010.3
20260505184045 62 324 0.9 3.5 0.00 0.14 0.01 49 1010.3
20260505183546 63 258 0.9 4.3 0.00 0.14 0.01 46 1010.3
20260505183043 65 150 0.9 7.8 0.00 0.14 0.01 44 1010.3
20260505182543 63 350 1.7 7.8 0.00 0.14 0.01 49 1010.3
20260505182044 61 338 0.0 2.6 0.00 0.14 0.01 54 1010.3
20260505181540 58 15 0.0 4.3 0.00 0.14 0.01 56 1010.3
20260505181040 58 194 0.9 7.0 0.00 0.14 0.01 56 1010.4
20260505180539 58 333 2.6 7.0 0.00 0.14 0.01 57 1010.3
20260505180046 58 219 2.6 6.1 0.00 0.14 0.01 58 1010.2
20260505175536 57 229 1.7 5.2 0.00 0.14 0.01 59 1010.2
20260505175035 57 248 2.6 6.1 0.00 0.14 0.01 60 1010.2
20260505174534 56 205 1.7 4.3 0.00 0.14 0.01 61 1010.1
20260505174034 56 236 1.7 5.2 0.00 0.14 0.01 62 1010.1
20260505173534 56 266 2.6 5.2 0.00 0.14 0.01 62 1010.2
20260505173032 55 229 2.6 5.2 0.00 0.14 0.01 62 1010.2
20260505172533 56 252 1.7 6.1 0.00 0.14 0.01 62 1010.1
20260505172032 56 251 1.7 7.0 0.00 0.14 0.01 62 1010.0
20260505171531 55 200 1.7 7.0 0.00 0.14 0.01 63 1010.0
20260505171031 55 211 4.3 7.0 0.00 0.14 0.01 62 1010.0
20260505170530 55 234 1.7 7.8 0.00 0.14 0.01 63 1010.0
20260505170029 55 227 3.5 7.8 0.00 0.14 0.01 63 1009.9
20260505165528 54 198 3.5 9.6 0.00 0.14 0.01 64 1009.9
20260505165028 54 241 5.2 9.6 0.00 0.14 0.01 64 1009.9
20260505164528 54 282 5.2 10.4 0.00 0.14 0.01 64 1009.9
20260505164027 54 244 6.1 10.4 0.00 0.14 0.01 64 1009.8
20260505163525 54 232 5.2 9.6 0.00 0.14 0.01 64 1009.8
20260505163025 54 270 4.3 7.8 0.00 0.14 0.01 64 1009.8
20260505162525 54 207 3.5 8.7 0.00 0.14 0.01 65 1009.6